Location: Abraham Lincoln Continuation High School
(33.9711°N, 117.3662°W)
Time: 06:08:50
(UTC+00:00)

Lacrosse 5 - Pass Details

Date: 21 January 2021
Orbit: 715 x 724 km, 57.0° (Epoch: 01 March)

Event Time Altitude Azimuth Distance (km) Brightness Sun altitude
Rises 03:35:27 0° 319° (NW) 3,118 5.6 -30.2°
Reaches altitude 10° 03:37:49 10° 319° (NW) 2,196 4.8 -30.7°
Enters shadow 03:40:35 33° 316° (NW) 1,192 3.2 -31.3°
